Home   Weather   Odense   Past weeks

Flag for Denmark Past Weather in Odense, Denmark — Yesterday and Last 2 Weeks

55 °F

Passing clouds.

Feels Like: 52 °F
Forecast: 49 / 55 °F
Wind: 12 mph from Southwest

Location: Soenderborg Lufthavn

Current Time: Oct 28, 2016 at 12:58:39 AM

Latest Report: Oct 28, 2016 at 12:20 AM

Visibility: N/A

Pressure: 30.21 "Hg

Humidity: 82%

Dew Point: 50 °F

Location of OdenseLocation

Past Weather in Odense — Graph


Odense Temperature Yesterday

Maximum temperature yesterday: 59 °F (at 12:52 PM)
Minimum temperature yesterday: 46 °F (at 12:20 AM)
Average temperature yesterday: 54 °F

High & Low Weather Summary for the Past Weeks

High59 °F (Oct 27, 12:52 PM)100% (Oct 16, 9:20 PM)30.36 "Hg (Oct 16, 9:20 PM)
Low39 °F (Oct 25, 11:20 PM)63% (Oct 27, 2:50 PM)29.86 "Hg (Oct 15, 7:50 AM)
Average49 °F88%30.08 "Hg
* Reported Oct 12 11:20 PM — Oct 27 11:50 PM, Odense, Weather by CustomWeather, © 2016

Note: Actual official high and low records may vary slightly from our data, if they occured in-between our weather recording intervals... More about our weather records


Odense Weather History for the Previous 24 Hours

Scroll right to see more
Time TempWeatherWind HumidityBarometerVisibility
11:50 PM
Thu, Oct 27
55 °FPassing clouds.13 mph82%30.21 "HgN/A
11:20 PM55 °FPassing clouds.13 mph82%30.21 "HgN/A
10:50 PM55 °FPartly cloudy.12 mph88%30.21 "HgN/A
10:20 PM55 °FPassing clouds.10 mph88%30.24 "HgN/A
9:50 PM55 °FPartly cloudy.10 mph88%30.21 "HgN/A
9:20 PM55 °FPassing clouds.10 mph88%30.24 "HgN/A
8:50 PM55 °FPassing clouds.10 mph88%30.24 "HgN/A
8:20 PM55 °FPassing clouds.9 mph88%30.24 "HgN/A
7:50 PM55 °FPassing clouds.10 mph88%30.27 "HgN/A
7:20 PM55 °FPartly cloudy.9 mph88%30.27 "HgN/A
6:50 PM55 °FPartly cloudy.10 mph88%30.27 "HgN/A
6:20 PM55 °FPartly cloudy.9 mph88%30.27 "HgN/A
5:50 PM57 °FBroken clouds.9 mph82%30.27 "HgN/A
5:20 PM57 °FPartly sunny.9 mph82%30.27 "HgN/A
4:50 PM57 °FScattered clouds.9 mph82%30.27 "HgN/A
4:21 PM57 °FBroken clouds.6 mph77%30.27 "HgN/A
3:51 PM57 °FBroken clouds.7 mph77%30.27 "HgN/A
3:20 PM57 °FPartly sunny.8 mph72%30.27 "HgN/A
2:50 PM59 °FPartly sunny.8 mph63%30.30 "HgN/A
2:20 PM57 °FScattered clouds.10 mph72%30.30 "HgN/A
1:50 PM59 °FScattered clouds.12 mph72%30.30 "HgN/A
1:20 PM57 °FScattered clouds.9 mph82%30.30 "HgN/A
12:52 PM59 °FScattered clouds.9 mph82%30.30 "HgN/A
11:50 AM57 °FScattered clouds.5 mph88%30.30 "HgN/A
11:20 AM55 °FPassing clouds.6 mph94%30.30 "HgN/A
10:50 AM55 °FPassing clouds.6 mph88%30.30 "HgN/A
10:20 AM54 °FPassing clouds.8 mph94%30.30 "HgN/A
9:50 AM54 °FPassing clouds.7 mph94%30.27 "HgN/A
9:20 AM52 °FScattered clouds.6 mph94%30.27 "HgN/A
8:50 AM52 °FPartly sunny.6 mph94%30.27 "Hg5 mi
8:20 AM52 °FBroken clouds.7 mph100%30.24 "Hg5 mi
8:08 AM52 °FPassing clouds.6 mph100%30.24 "Hg4 mi
6:50 AM52 °FFog.7 mph94%30.24 "Hg1 mi
6:20 AM52 °FFog.6 mph94%30.24 "Hg1 mi
5:50 AM52 °FFog.7 mph94%30.24 "Hg2 mi
5:20 AM52 °FFog.7 mph94%30.24 "Hg1 mi
4:50 AM50 °FFog.7 mph100%30.21 "Hg1 mi
4:20 AM50 °FFog.7 mph100%30.21 "Hg1 mi
3:50 AM50 °FSprinkles. Fog.9 mph94%30.21 "Hg1 mi
3:20 AM50 °FSprinkles. Fog.8 mph94%30.21 "Hg1 mi
2:50 AM48 °FSprinkles. Fog.9 mph100%30.21 "Hg1 mi
2:20 AM48 °FFog.9 mph94%30.21 "Hg2 mi
1:50 AM48 °FSprinkles. Fog.10 mph94%30.24 "Hg1 mi
1:20 AM48 °FRain showers. Fog.10 mph94%30.24 "Hg1 mi
12:20 AM46 °FRain. Fog.10 mph93%30.24 "Hg2 mi
Weather by CustomWeather, © 2016

See weather overviewHow to use our weather pages